sat.trackr.live / text

‹ back to catalog

STARLINK-3387

NORAD 51125 · 2022-005X

PAYLOAD ACTIVE UNKNOWN

§ Identity

Operator
Country
US
Launch date
2022-01-19
Launch site
AFETR
Launch vehicle
Mass (kg)
RCS (m²)

Purposes: comms

External: N2YO · Heavens-Above · Gunter

§ Orbital elements

Epoch: 2026-05-25T04:35:58.350048Z

Period
95.44 min
Inclination
53.2130°
Eccentricity
0.0001201
Mean motion
15.08835591 rev/d
Perigee alt
538.9 km
Apogee alt
540.6 km
Semi-major
6,917.9 km
B*
6.9390e-6
RAAN
315.6978°
Arg perigee
90.6879°
Mean anomaly
269.4251°
Rev number
24,027

§ Raw data

STARLINK-33871 51125U 22005X   26145.19164757 -.00000177  00000+0  69390-5 0  99982 51125  53.2130 315.6978 0001201  90.6879 269.4251 15.08835591240271

JSON: /api/v1/satellites/51125 · /tle

For live sub-satellite position, see the globe view (requires WebGL).

§ Visibility from observer

Set your observer location to see the next 7 days of passes ≥ 10°. The values pass through the URL so the page stays shareable.

No JS? Fill the form by hand. The geolocation button needs JavaScript.